Volver al catálogo

FREGAT DEB

LostUNKNOWN
NORAD 47333·DEBRIS·🇷🇺 Russia

Lanzado Jul 18, 2011 desde Baikonur Cosmodrome

Loading…

Próximos Pases (próximas 24 horas)

TLE

ObsoletoSource: Space-Track

Época: Dec 28, 2021, 07:22 UTC

1 47333U 11037NQ  21362.30759130  .00135930  00000-0  13047+0 0  9999
2 47333  51.3599  52.5404 1646883  28.8317 339.4227 11.31341548 40341

Sigue FREGAT DEB en tiempo real con AllMySat

Download on the App Store